Regional Weather Roundup
Issued by NWS

Home | Current Version | Previous Version | Text Only | Print | Product List | Glossary On
Versions: 1 2 3 4 5 6 7 8 9 10 11 12 13 14 15 16 17 18 19 20 21 22 23 24 25 26 27 28 29 30 31 32 33 34 35 36 37 38 39 40 41 42 43 44 45 46 47 48 49 50
375
ASUS43 KDMX 231106
RWRIA

WEATHER ROUNDUP FOR IOWA
NATIONAL WEATHER SERVICE DES MOINES IA
600 AM CDT SUN JUL 23 2017

NOTE: "FAIR" INDICATES FEW OR NO CLOUDS BELOW 12,000 FEET WITH NO
SIGNIFICANT WEATHER AND/OR OBSTRUCTIONS TO VISIBILITY.

* - THESE STATIONS ARE NOT NWS STATIONS...THUS NOT UNDER NWS
QUALITY CONTROL.  THEY ALSO DO NOT REPORT WEATHER SUCH
AS PRECIPITATION OR FOG.

IAZ001>003-012>014-020>022-031>034-043>046-231200-
   NORTHWEST IOWA

CITY           SKY/WX    TMP DP  RH WIND       PRES   REMARKS
CARROLL *      FOG       72  72 100 VRB6G13   29.92S VSB 3/4
CHEROKEE *     PTCLDY    66  66 100 CALM      29.94F FOG
DENISON *      FOG       72  72 100 CALM      29.95S VSB 1/4
ORANGE CITY *  PTCLDY    64  63  94 CALM      29.96S
SHELDON *      CLEAR     61  59  94 SW3       29.94R
SIOUX CITY     CLEAR     67  67 100 N5        29.94S
SPENCER        CLEAR     64  61  90 W8        29.93R
STORM LAKE *   FOG       68  68 100 W12       29.95S VSB 3/4
$$

IAZ055>058-069>071-079>083-090>094-231200-
   SOUTHWEST IOWA

CITY           SKY/WX    TMP DP  RH WIND       PRES   REMARKS
ATLANTIC *     FOG       70  70 100 NE5       29.93R VSB<1/4
AUDUBON *      FOG       70  68  94 CALM      29.95R VSB 1/2
CLARINDA *     FOG       73  73 100 N3        29.94R VSB<1/4
COUNCIL BLFS * FOG       68  68 100 N8        29.94R VSB<1/4
CRESTON *      FOG       70  70 100 N7        29.94S VSB<1/4
HARLAN  *      FOG       70  70 100 CALM      29.97R VSB<1/4
LAMONI         CLEAR     73  73 100 W5        29.92F
RED OAK *      FOG       68  68 100 CALM      29.93R VSB<1/4
SHENANDOAH *   FOG       70  70 100 CALM      29.92S VSB<1/4
$$

IAZ047>049-059>061-072>074-084-231200-
   CENTRAL IOWA

CITY           SKY/WX    TMP DP  RH WIND       PRES   REMARKS
AMES           CLEAR     69  69 100 W7        29.90S FOG
ANKENY *       CLEAR     72  70  94 W6        29.91S
BOONE *        CLEAR     68  68 100 W6        29.90S FOG
CHARITON *     CLEAR     73  72  94 W3        29.91R
DES MOINES     PTCLDY    73  71  93 W5        29.89F
GRINNELL*      FOG       72  70  95 W3        29.91S VSB 1/4
KNOXVILLE *    CLEAR     73  72  94 W8        29.89R FOG
MARSHALLTOWN   CLEAR     69  69 100 W6        29.88S FOG
NEWTON *       FOG       70  70 100 W3        29.90S VSB<1/4
PELLA *          N/A     73  72  95 W3        29.90S
$$

IAZ004>006-015-016-023>025-035-036-231200-
   NORTH CENTRAL IOWA

CITY           SKY/WX    TMP DP  RH WIND       PRES   REMARKS
ALGONA *       CLEAR     66  66 100 W10       29.90R
ESTHERVILLE    CLEAR     63  62  97 NW8       29.90R
FORT DODGE *   CLEAR     66  64  94 W3        29.92R
MASON CITY     CLEAR     71  66  84 W10       29.88R
FOREST CITY *    N/A     68  64  88 W6        29.87R
WEBSTER CITY * CLEAR     66  66 100 SW6       29.88S FOG
IOWA FALLS *     N/A     69  68  97 W7        29.90S FOG
$$

IAZ007>011-017>019-026>030-037>042-050>054-066-231200-
   NORTHEAST IOWA

CITY           SKY/WX    TMP DP  RH WIND       PRES   REMARKS
CEDAR RAPIDS   CLEAR     67  67 100 SW6       29.85F FOG
CHARLES CITY * CLEAR     66  66 100 W6        29.85S
DECORAH *      CLEAR     66  66 100 CALM      29.84R
DUBUQUE        FOG       66  66 100 SW5       29.84F VSB<1/4
MONTICELLO *   FOG       66  66 100 S5        29.84S VSB<1/4
OELWEIN *        N/A    N/A N/A N/A MISG        N/A
WATERLOO       CLEAR     67  66  97 SW6       29.85R FOG
$$

IAZ064-065-067-068-078-231200-
   EAST CENTRAL IOWA

CITY           SKY/WX    TMP DP  RH WIND       PRES   REMARKS
DAVENPORT      PTCLDY    71  70  96 W5        29.87R FOG
IOWA CITY      CLEAR     72  70  93 SW5       29.87S
MT. PLEASANT * CLOUDY    72  72 100 W5        29.88S FOG
MUSCATINE *    MOCLDY    73  72  94 W6        29.86S
QUAD CITIES    CLOUDY    74  71  91 SW6       29.85R
$$

IAZ062-063-075>077-085>089-095>099-231200-
   SOUTHEAST IOWA

CITY           SKY/WX    TMP DP  RH WIND       PRES   REMARKS
BURLINGTON     CLOUDY    74  74 100 SW5       29.87F
FAIRFIELD *    CLOUDY    73  72  94 W6        29.88R
FORT MADISON * CLOUDY    75  75 100 SW5       29.88F
KEOKUK *       MOCLDY    75  72  88 SW7       29.87F
OSKALOOSA *      N/A     71  70  96 W5        29.89S
CENTERVILLE *    N/A     73  73 100 CALM      29.91F
OTTUMWA        CLOUDY    73  73 100 W5        29.88F
WASHINGTON *   PTCLDY    73  73 100 W6        29.89R
$$

ABBREVIATIONS USED IN REMARKS
   TC - TEMPERATURES IN CELSIUS
  WCI - WIND CHILL INDEX
   HX - HEAT INDEX
  VSB - VISIBILITY
$$





USA.gov is the U.S. government's official web portal to all federal, state and local government web resources and services.